This demonstration page uses our WeatherBlox Daily Observations layout. Learn more.

Left ArrowRight Arrow

36.19886, -115.1175

Hourly Observations for January 18, 2022

Temp ( °F °C ) Dew Point ( °F °C ) Humidity (%) Winds ( mph kmh ) Pressure ( in mb ) Visibility ( mi km ) Precip ( " mm )
12:53 am 00:53 Cloudy 50 10 30 -1.1 46 46 NW 3 6 30.05 1018 10 16 0.00 0.00
1:53 am 01:53 Cloudy 48 8.9 31 -0.6 52 52 WNW 6 9 30.04 1017 10 16 0.00 0.00
2:53 am 02:53 Mostly Cloudy 48 8.9 29 -1.7 48 48 Calm 30.04 1017 10 16 0.00 0.00
3:53 am 03:53 Cloudy 49 9.4 29 -1.7 46 46 W 3 6 30.03 1017 10 16 0.00 0.00
4:53 am 04:53 Cloudy with Light Rain 48 8.9 38 3.3 68 68 VRB 3 6 30.04 1017 8 13 0.01 0.25
5:53 am 05:53 Cloudy 49 9.4 37 2.8 64 64 Calm 30.06 1018 10 16 0.00 0.00
6:53 am 06:53 Cloudy 48 8.9 38 3.3 68 68 Calm 30.07 1018 10 16 0.01 0.25
7:53 am 07:53 Cloudy 48 8.9 40 4.4 74 74 E 3 6 30.09 1019 10 16 0.00 0.00
8:53 am 08:53 Cloudy 50 10 39 3.9 66 66 Calm 30.10 1019 10 16 0.00 0.00
9:53 am 09:53 Mostly Cloudy 53 11.7 35 1.7 51 51 Calm 30.11 1020 10 16 0.00 0.00
10:53 am 10:53 Mostly Cloudy 53 11.7 34 1.1 48 48 ESE 5 7 30.09 1019 10 16 0.00 0.00
11:53 am 11:53 Sunny 56 13.3 28 -2.2 34 34 Calm 30.06 1018 10 16 0.00 0.00
12:53 pm 12:53 Sunny 58 14.4 31 -0.6 36 36 ESE 3 6 30.04 1017 10 16 0.00 0.00
1:53 pm 13:53 Sunny 59 15 36 2.2 42 42 ESE 5 7 30.03 1017 10 16 0.00 0.00
2:53 pm 14:53 Sunny 60 15.6 36 2.2 41 41 SSE 3 6 30.04 1017 10 16 0.00 0.00
3:53 pm 15:53 Sunny 59 15 38 3.3 46 46 SE 3 6 30.03 1017 10 16 0.00 0.00
4:53 pm 16:53 Clear 58 14.4 39 3.9 50 50 Calm 30.05 1018 10 16 0.00 0.00
5:53 pm 17:53 Clear 56 13.3 38 3.3 51 51 Calm 30.06 1018 10 16 0.00 0.00
6:53 pm 18:53 Clear 53 11.7 39 3.9 59 59 Calm 30.08 1019 10 16 0.00 0.00
7:53 pm 19:53 Clear 51 10.6 39 3.9 64 64 W 6 9 30.09 1019 10 16 0.00 0.00
8:53 pm 20:53 Clear 49 9.4 37 2.8 64 64 NW 5 7 30.10 1019 10 16 0.00 0.00
9:53 pm 21:53 Clear 48 8.9 37 2.8 66 66 WNW 5 7 30.11 1020 10 16 0.00 0.00
10:53 pm 22:53 Clear 45 7.2 35 1.7 68 68 NW 7 11 30.13 1020 10 16 0.00 0.00
11:53 pm 23:53 Clear 44 6.7 35 1.7 71 71 NW 5 7 30.14 1021 10 16 0.00 0.00

Powered by AerisWeather